Location: Krakow
(50.0830°N, 19.9170°E)
Time: 07:03:16
(UTC+02:00)

Tiros 1 despin weight - Pass Details

Date: 19 March 2026
Orbit: 555 x 592 km, 48.2° (Epoch: 18 April)

Event Time Altitude Azimuth Distance (km) Brightness Sun altitude
Rises 05:54:40 0° 264° (W) 2,816 ? 0.6°
Reaches altitude 10° 05:56:58 10° 262° (W) 1,912 ? 1.0°
Maximum altitude 06:01:20 70° 179° (S) 624 ? 1.7°
Drops below altitude 10° 06:05:38 10° 96° (E) 1,892 ? 2.4°
Sets 06:07:54 0° 94° (E) 2,784 ? 2.7°
